DW0186 Weather Reports


time (UTC)temp
F
wind
direction
speed
knots
gust
knots
rain 1hr
in
rain 24hr
in
rain mn
in
humidity
%
barometer
mb
20260505233047 62 347 0.0 0.0 0.00 0.00 0.00 69 1014.8
20260505231603 62 347 0.0 0.0 0.00 0.00 0.00 68 1015.0
20260505230051 61 347 0.0 0.0 0.00 0.00 0.00 69 1014.9
20260505224549 61 347 0.0 0.0 0.00 0.00 0.00 70 1014.9
20260505223048 61 347 0.0 0.0 0.00 0.00 0.00 70 1015.0
20260505221553 61 347 0.0 0.0 0.00 0.00 0.00 70 1015.0
20260505220044 61 347 0.0 0.0 0.00 0.00 0.00 69 1015.1
20260505214603 61 347 0.0 0.0 0.00 0.00 0.00 70 1015.1
20260505213044 62 347 0.0 0.9 0.00 0.00 0.00 70 1015.4
20260505211544 62 346 0.0 0.0 0.00 0.00 0.00 69 1015.3
20260505210044 62 346 0.0 0.0 0.00 0.00 0.00 68 1015.2
20260505204542 62 346 0.0 0.0 0.00 0.00 0.00 69 1015.2
20260505203040 61 346 0.0 0.9 0.00 0.00 0.00 71 1015.2
20260505201539 61 346 0.0 0.0 0.00 0.00 0.00 72 1015.3
20260505200045 61 346 0.0 0.0 0.00 0.00 0.00 73 1015.6
20260505194538 61 346 0.0 0.0 0.00 0.00 0.00 71 1015.6
20260505193038 61 346 0.0 0.0 0.00 0.00 0.00 71 1015.7
20260505191542 60 346 0.0 0.0 0.00 0.00 0.00 72 1015.6
20260505190032 60 346 0.0 0.0 0.00 0.00 0.00 73 1015.4
20260505184530 59 346 0.0 0.0 0.00 0.00 0.00 75 1015.5
20260505183030 58 346 0.0 0.0 0.00 0.00 0.00 75 1015.6
20260505181522 58 346 0.0 0.0 0.00 0.00 0.00 75 1015.6
20260505180023 58 346 0.0 0.0 0.00 0.00 0.00 74 1015.4
20260505174518 58 346 0.0 0.0 0.00 0.00 0.00 74 1015.3
20260505173017 58 346 0.0 0.0 0.00 0.00 0.00 73 1015.1
20260505171516 58 346 0.0 0.0 0.00 0.00 0.00 72 1015.0
20260505170014 57 346 0.0 0.0 0.00 0.00 0.00 73 1015.0
20260505164512 57 346 0.0 0.0 0.00 0.00 0.00 73 1014.9
20260505163016 56 346 0.0 0.0 0.00 0.00 0.00 73 1014.8
20260505161509 56 346 0.0 0.0 0.00 0.00 0.00 75 1014.8
20260505153108 54 346 0.0 0.0 0.00 0.00 0.00 80 1014.6
20260505151607 53 346 0.0 0.0 0.00 0.00 0.00 81 1014.5
20260505140107 51 345 0.0 0.0 0.00 0.00 0.00 84 1014.1
20260505124544 51 345 0.0 0.0 0.00 0.00 0.00 84 1013.7
20260505123048 51 345 0.0 0.0 0.00 0.00 0.00 84 1014.0
20260505121542 51 345 0.0 0.0 0.00 0.00 0.00 84 1014.0
20260505120047 51 345 0.0 0.0 0.00 0.00 0.00 83 1013.9
20260505114545 51 345 0.0 0.0 0.00 0.00 0.00 82 1014.1
20260505113039 52 345 0.0 0.0 0.00 0.00 0.00 82 1014.0
20260505111537 52 345 0.0 0.0 0.00 0.00 0.00 80 1014.1
20260505101542 52 345 0.0 0.0 0.00 0.00 0.00 78 1014.0
20260505100030 53 345 0.0 0.0 0.00 0.00 0.00 78 1014.2
20260505094536 53 345 0.0 0.0 0.00 0.00 0.00 77 1014.2
20260505093030 53 345 0.0 0.0 0.00 0.00 0.00 76 1014.3
20260505091529 53 345 0.0 0.0 0.00 0.00 0.00 74 1014.2
20260505090025 53 345 0.0 0.0 0.00 0.00 0.00 74 1014.4
20260505084524 53 345 0.0 0.0 0.00 0.00 0.00 75 1014.6
20260505083024 53 345 0.0 0.0 0.00 0.00 0.00 74 1014.8
20260505081522 53 345 0.0 0.0 0.00 0.00 0.00 75 1014.8
20260505080021 53 345 0.0 0.0 0.00 0.00 0.00 76 1014.9
20260505074520 53 345 0.0 0.0 0.00 0.00 0.00 78 1014.9
20260505073018 53 345 0.0 0.0 0.00 0.00 0.00 80 1014.9
20260505071529 54 345 0.0 0.0 0.00 0.00 0.00 80 1014.8
20260505070016 54 345 0.0 0.0 0.00 0.00 0.00 80 1014.6
20260505064515 54 345 0.0 0.0 0.00 0.00 0.00 80 1014.5
20260505063017 54 345 0.0 0.0 0.00 0.00 0.00 79 1014.5
20260505061517 54 345 0.0 0.0 0.00 0.00 0.00 79 1014.3
20260505060033 55 345 0.0 0.0 0.00 0.00 0.00 78 1014.3
20260505054517 55 345 0.0 0.0 0.00 0.00 0.00 77 1014.5
20260505053013 55 345 0.0 0.0 0.00 0.00 0.00 76 1014.7
20260505051519 55 345 0.0 0.0 0.00 0.00 0.00 75 1014.9
20260505041510 56 345 0.0 0.0 0.00 0.00 0.00 73 1014.5
20260505040010 56 346 0.0 0.0 0.00 0.00 0.00 71 1014.2
20260505034508 57 346 0.0 0.0 0.00 0.00 0.00 69 1014.1
20260505033012 57 346 0.0 0.0 0.00 0.00 0.00 67 1013.7
20260505031507 58 346 0.0 0.0 0.00 0.00 0.00 66 1013.5
20260505030007 59 346 0.0 0.0 0.00 0.00 0.00 66 1013.6
20260505024510 59 346 0.0 0.0 0.00 0.00 0.00 66 1013.5
20260505023017 59 346 0.0 0.9 0.00 0.00 0.00 66 1013.6
20260505021513 59 346 0.0 0.9 0.00 0.00 0.00 64 1013.5
20260505020007 60 346 0.0 0.0 0.00 0.00 0.00 65 1013.4
20260505014512 61 346 0.0 1.7 0.00 0.00 0.00 63 1013.5
20260505013004 61 15 0.0 2.6 0.00 0.00 0.00 62 1013.4
20260505011505 62 292 0.0 0.9 0.00 0.00 0.00 61 1013.6
20260505010004 62 345 0.0 0.0 0.00 0.00 0.00 62 1013.7
20260505004503 63 275 0.0 0.0 0.00 0.00 0.00 63 1013.8
20260505003002 63 209 0.0 0.9 0.00 0.00 0.00 64 1013.9
20260505001502 62 221 0.0 0.0 0.00 0.00 0.00 64 1013.8
20260505000002 61 221 0.0 0.0 0.00 0.00 0.00 64 1013.7
20260504234600 61 221 0.0 0.0 0.00 0.00 0.00 63 1013.8